Wind_Speed
17 16 16 16 16 16 16 16 16 16 16 16 15 15 15 15 16 16 16 16 17 17 18 18 19 20 20 21 21 21 22 22 22 23 23 22 22 22
18 18 17 17 17 17 17 17 17 17 17 17 17 17 16 16 17 18 18 18 18 17 17 19 20 20 21 21 22 22 22 23 23 23 24 23 23 23
20 19 18 18 18 18 19 19 19 19 18 18 18 18 18 18 19 20 19 19 18 18 18 19 20 20 21 21 21 22 23 23 24 24 24 24 24 23
21 20 20 20 20 20 20 20 20 20 19 19 19 20 20 20 19 20 20 19 19 19 19 19 20 20 20 22 22 22 22 24 24 24 24 24 24 24
21 21 21 21 21 21 21 21 21 21 20 21 21 21 20 21 20 20 21 21 21 21 21 21 21 21 21 21 21 21 21 21 22 22 23 23 23 23
22 22 22 22 21 22 22 22 21 21 21 22 21 22 22 22 21 21 22 22 22 22 22 22 21 21 21 21 20 20 21 21 21 21 22 22 23 24
23 23 23 22 22 21 21 21 22 21 22 22 22 22 22 22 23 23 23 23 23 23 22 22 21 21 22 22 21 21 21 21 21 21 21 22 22 23
23 23 23 22 22 22 22 22 22 22 22 23 23 22 23 23 23 23 23 23 22 22 22 22 22 22 22 22 21 21 21 21 21 21 21 21 22 22
23 23 24 23 23 22 22 23 23 23 23 23 23 23 23 23 23 23 24 24 23 22 22 22 22 22 22 21 21 21 21 22 22 22 22 23 23 24
23 23 23 23 23 23 23 23 23 22 23 23 23 23 23 23 23 23 23 23 22 22 21 21 21 21 22 22 22 21 22 23 22 22 22 23 24 24
22 22 23 23 24 24 23 23 23 23 23 23 23 24 24 24 24 23 23 22 22 22 22 22 21 21 21 22 22 22 22 22 22 22 23 23 23 24
24 23 23 24 24 24 24 24 24 24 24 24 24 24 24 25 24 24 24 24 23 23 23 23 23 22 21 21 21 22 23 23 23 23 23 23 23 24
25 25 25 25 25 25 25 26 26 25 25 25 25 24 24 25 25 25 25 25 24 23 23 23 23 22 22 22 23 23 23 23 23 23 23 24 24 24
26 26 26 26 26 26 27 27 27 27 27 26 26 25 25 25 25 24 24 24 24 23 23 23 23 23 23 23 24 24 24 24 24 24 24 24 24 24
26 26 26 26 26 26 27 27 28 28 27 26 26 25 25 25 25 25 25 24 24 24 23 23 23 24 24 24 24 24 24 25 25 25 25 25 25 24
27 27 27 27 27 28 27 27 27 27 27 27 26 26 26 26 26 25 25 25 24 24 24 24 24 24 24 24 25 24 24 24 25 25 25 24 24 25
29 28 27 27 28 28 28 28 27 27 27 27 27 27 27 26 26 26 26 25 25 24 24 25 25 25 25 25 25 25 24 24 24 24 24 24 24 24
29 28 28 27 27 28 28 29 28 28 28 28 28 27 27 27 26 26 26 25 25 24 25 25 25 25 25 26 26 25 25 24 25 24 24 24 24 23
29 28 28 28 28 28 29 29 29 29 28 28 28 28 28 27 27 26 26 26 25 24 24 25 25 26 26 26 26 26 25 25 25 25 25 25 24 24
30 29 29 29 28 29 29 29 29 29 30 30 29 29 29 29 28 27 27 27 26 26 26 26 26 27 27 27 25 25 25 25 25 25 26 26 25 24
30 30 30 29 29 29 29 29 29 29 29 29 30 30 29 29 29 29 29 28 27 27 26 27 27 27 27 27 26 26 26 26 26 26 26 26 26 25
29 29 29 29 29 29 29 28 28 28 28 29 29 29 29 29 29 29 28 28 28 27 27 27 27 27 27 27 27 27 26 26 27 26 26 26 26 25
27 27 28 27 27 27 28 27 27 28 28 27 27 27 28 28 28 28 27 28 29 28 28 28 28 27 27 27 27 27 26 26 26 26 27 27 27 26
Wind_Direction
288 287 286 288 290 292 292 293 293 292 292 293 291 292 292 292 296 299 299 298 296 293 289 287 284 281 279 278 276 276 274 273 272 271 272 271 271 270
284 285 285 285 287 289 293 293 293 292 292 293 293 292 291 292 295 297 299 298 296 295 290 287 287 284 281 280 278 276 275 273 272 270 270 270 268 270
282 283 283 285 288 291 292 292 292 291 292 293 293 293 293 294 295 296 298 297 296 295 293 289 288 286 284 281 279 277 276 275 273 271 269 268 268 269
281 282 283 285 287 290 291 290 290 289 289 290 291 292 292 293 294 295 295 296 296 296 295 291 288 288 286 282 282 281 279 276 275 273 272 269 268 269
281 280 281 284 285 289 291 291 291 291 292 292 291 291 291 291 293 294 295 297 296 295 294 293 291 290 289 285 284 285 283 280 278 276 275 274 271 271
279 280 281 282 283 286 288 290 290 290 291 291 291 289 289 290 293 294 295 296 295 293 292 292 292 291 291 288 288 288 286 285 283 280 278 276 273 272
277 276 278 280 280 283 286 288 288 288 289 291 292 291 290 290 291 292 291 292 293 293 291 290 289 289 289 288 285 286 286 284 282 280 279 278 276 275
279 277 278 280 281 282 284 286 287 287 288 289 290 291 291 292 292 292 291 292 293 292 291 290 289 288 288 286 284 284 284 283 283 281 279 279 279 278
278 280 280 278 279 280 282 284 285 286 287 289 289 289 290 291 292 292 292 292 292 291 290 291 290 289 287 285 284 284 284 284 284 283 281 280 280 281
276 280 280 279 279 281 283 284 284 285 287 288 288 288 289 291 292 293 294 294 293 291 291 291 290 289 288 286 285 284 284 284 283 283 281 280 280 280
275 278 280 280 279 279 281 282 283 284 286 287 286 287 288 290 292 293 293 293 292 291 290 290 289 287 285 284 284 284 284 284 283 283 283 282 282 282
276 277 280 281 280 279 279 280 282 283 286 287 287 286 287 289 290 290 291 291 290 288 288 288 287 286 284 283 285 287 286 284 282 282 283 283 283 283
277 280 282 281 280 279 280 281 281 282 283 285 286 286 284 285 288 289 289 288 287 286 287 288 287 286 285 284 285 287 286 285 283 283 283 285 284 283
278 280 281 279 279 279 281 281 282 282 282 284 284 285 284 283 285 287 288 287 287 287 287 286 286 286 285 285 284 285 286 286 285 284 284 286 285 283
277 278 281 282 280 280 281 282 282 282 283 284 284 284 285 284 285 286 287 286 287 286 286 286 285 286 287 287 286 286 286 287 286 286 286 286 286 285
276 277 278 280 281 280 279 282 283 283 282 282 283 284 283 283 285 285 286 285 284 283 283 284 286 287 287 288 288 287 288 288 287 287 288 288 287 287
275 277 278 280 280 280 280 281 282 283 283 283 283 283 283 284 284 284 285 283 281 280 282 283 285 286 286 288 288 288 289 290 288 287 288 287 286 287
273 276 278 278 279 281 281 281 282 283 283 283 282 283 283 282 283 283 283 283 283 281 282 283 284 285 285 287 288 287 288 288 288 287 287 287 287 287
272 274 277 276 278 280 282 282 282 282 281 281 282 282 282 282 282 281 281 281 281 281 282 282 283 284 285 286 286 286 286 286 287 287 287 287 287 287
270 272 274 275 277 280 281 282 281 280 280 280 280 281 281 280 280 279 279 279 278 278 280 281 282 284 285 285 284 285 286 286 286 287 286 286 286 287
269 271 273 275 277 278 280 281 280 280 280 279 278 278 278 278 278 277 277 276 277 277 278 281 282 283 284 284 283 284 284 284 286 286 285 284 284 284
269 271 273 275 276 278 280 281 281 280 279 278 278 277 276 276 277 277 276 276 276 277 277 279 281 282 283 283 283 283 283 282 284 286 286 284 284 283
271 273 275 276 277 278 279 281 282 282 281 280 278 278 278 278 278 278 277 277 278 278 277 278 279 280 281 282 283 283 282 281 283 286 286 285 284 282
Height
5841 5841 5840 5839 5838 5838 5837 5836 5835 5834 5833 5832 5831 5830 5829 5828 5827 5826 5825 5824 5823 5822 5821 5821 5821 5820 5820 5819 5819 5819 5819 5819 5819 5820 5820 5820 5820 5820
5837 5836 5835 5835 5834 5833 5832 5831 5830 5829 5828 5828 5826 5825 5825 5824 5823 5822 5821 5820 5818 5817 5817 5816 5816 5815 5815 5814 5813 5813 5813 5813 5813 5814 5814 5814 5814 5815
5831 5831 5830 5830 5829 5828 5828 5827 5825 5824 5824 5823 5822 5821 5820 5819 5818 5817 5816 5815 5814 5813 5812 5811 5810 5810 5809 5808 5808 5807 5807 5807 5807 5807 5807 5808 5808 5808
5826 5826 5825 5825 5824 5823 5822 5821 5820 5819 5818 5817 5817 5816 5815 5814 5813 5812 5811 5810 5809 5808 5807 5806 5805 5804 5803 5802 5802 5801 5800 5800 5800 5800 5801 5802 5802 5802
5820 5820 5820 5819 5819 5818 5817 5816 5815 5814 5813 5812 5811 5810 5810 5809 5808 5807 5806 5805 5803 5802 5801 5800 5799 5798 5797 5796 5796 5795 5794 5793 5793 5793 5794 5795 5795 5796
5815 5814 5814 5813 5813 5812 5812 5811 5810 5808 5807 5806 5805 5804 5804 5803 5802 5801 5800 5799 5797 5796 5795 5794 5793 5792 5792 5791 5790 5789 5788 5788 5787 5787 5788 5788 5789 5789
5808 5808 5808 5807 5807 5806 5806 5805 5804 5803 5802 5801 5800 5799 5798 5797 5796 5795 5794 5793 5791 5790 5789 5788 5787 5786 5786 5785 5784 5783 5783 5782 5781 5781 5781 5781 5782 5782
5802 5801 5801 5801 5800 5800 5799 5799 5798 5797 5796 5795 5794 5793 5792 5791 5789 5788 5787 5786 5785 5784 5783 5782 5781 5780 5779 5779 5778 5777 5777 5776 5775 5775 5775 5775 5775 5775
5795 5794 5794 5794 5794 5794 5793 5792 5792 5791 5790 5789 5788 5787 5785 5784 5783 5782 5780 5779 5778 5777 5777 5776 5775 5774 5773 5772 5772 5771 5771 5770 5769 5769 5768 5768 5768 5768
5788 5787 5787 5787 5787 5787 5786 5786 5785 5784 5784 5782 5781 5780 5779 5778 5776 5775 5774 5773 5772 5771 5770 5769 5769 5768 5767 5766 5765 5765 5764 5764 5763 5762 5762 5761 5760 5760
5781 5781 5781 5781 5781 5780 5780 5779 5779 5778 5777 5775 5774 5773 5772 5771 5769 5768 5767 5767 5766 5765 5763 5763 5762 5761 5761 5760 5759 5758 5757 5757 5756 5755 5754 5753 5753 5752
5775 5774 5774 5774 5774 5773 5773 5772 5772 5771 5770 5769 5767 5766 5765 5764 5763 5761 5761 5760 5759 5758 5757 5756 5755 5754 5754 5753 5752 5751 5750 5750 5749 5748 5747 5746 5745 5744
5768 5768 5767 5766 5766 5766 5766 5765 5764 5763 5762 5762 5761 5759 5758 5757 5756 5755 5753 5753 5752 5751 5750 5749 5748 5747 5747 5747 5746 5745 5744 5743 5742 5741 5740 5738 5737 5736
5760 5760 5760 5759 5759 5758 5758 5757 5756 5755 5755 5754 5753 5752 5751 5750 5749 5748 5747 5745 5744 5744 5743 5742 5741 5740 5740 5739 5738 5737 5736 5735 5734 5733 5732 5731 5729 5728
5752 5752 5752 5751 5751 5751 5750 5749 5748 5747 5747 5746 5745 5745 5744 5743 5742 5741 5739 5738 5737 5737 5736 5735 5734 5733 5732 5731 5731 5730 5729 5727 5726 5725 5724 5723 5721 5720
5744 5744 5744 5744 5743 5742 5742 5741 5740 5739 5738 5738 5737 5737 5736 5735 5734 5733 5732 5731 5730 5730 5729 5727 5726 5726 5725 5724 5723 5722 5721 5720 5718 5717 5716 5714 5713 5712
5736 5736 5736 5736 5735 5734 5734 5733 5732 5731 5730 5730 5729 5728 5728 5727 5726 5725 5724 5723 5723 5722 5721 5720 5719 5718 5717 5716 5715 5714 5713 5711 5710 5709 5708 5707 5705 5704
5727 5727 5727 5727 5726 5725 5725 5724 5723 5722 5721 5721 5720 5720 5719 5718 5717 5717 5716 5715 5715 5714 5713 5712 5711 5710 5710 5708 5707 5706 5705 5704 5703 5701 5700 5699 5698 5697
5718 5719 5719 5718 5718 5717 5716 5715 5714 5714 5713 5712 5711 5711 5710 5709 5709 5708 5708 5707 5706 5706 5705 5704 5703 5702 5702 5701 5700 5698 5697 5696 5695 5694 5692 5691 5690 5689
5710 5710 5710 5710 5709 5708 5707 5706 5705 5704 5703 5703 5702 5701 5701 5700 5700 5700 5699 5699 5698 5698 5697 5696 5696 5694 5694 5693 5692 5691 5689 5688 5687 5686 5685 5683 5682 5681
5701 5701 5701 5700 5700 5699 5698 5697 5696 5695 5694 5693 5693 5692 5691 5691 5691 5690 5690 5690 5689 5689 5689 5688 5687 5686 5685 5685 5684 5683 5681 5680 5679 5678 5676 5675 5674 5673
5691 5692 5692 5691 5690 5690 5689 5688 5687 5686 5685 5684 5683 5683 5682 5682 5682 5681 5681 5681 5680 5680 5680 5679 5679 5678 5677 5676 5675 5674 5674 5673 5671 5670 5668 5667 5665 5665
5683 5683 5682 5682 5681 5681 5680 5679 5678 5677 5676 5675 5674 5674 5673 5673 5673 5672 5672 5672 5671 5671 5671 5670 5670 5669 5668 5668 5667 5665 5665 5664 5663 5661 5660 5658 5657 5656